FW4684 Weather Reports


Display with metric or nautical units.
time (UTC)temp
F
wind
direction
speed
MPH
gust
MPH
rain 1hr
in
rain 24hr
in
rain mn
in
humidity
%
barometer
mb
20260508185015 67 142 2.0 6.0 0.00 0.00 0.00 32 1017.0
20260508184521 67 167 0.0 4.0 0.00 0.00 0.00 32 1016.9
20260508184013 67 151 0.0 2.0 0.00 0.00 0.00 32 1016.9
20260508183517 66 68 0.0 6.0 0.00 0.00 0.00 35 1017.1
20260508183024 66 143 2.0 6.0 0.00 0.00 0.00 32 1017.1
20260508182511 66 168 1.0 5.0 0.00 0.00 0.00 33 1017.0
20260508182010 66 138 1.0 8.0 0.00 0.00 0.00 35 1016.9
20260508181514 66 64 4.0 8.0 0.00 0.00 0.00 35 1017.2
20260508181008 66 124 1.0 4.0 0.00 0.00 0.00 34 1017.4
20260508180507 66 127 0.0 7.0 0.00 0.00 0.00 32 1017.4
20260508180007 66 54 3.0 7.0 0.00 0.00 0.00 34 1017.5
20260508175007 65 281 2.0 10.0 0.00 0.00 0.00 33 1017.4
20260508174506 66 158 4.0 13.0 0.00 0.00 0.00 33 1017.5
20260508174005 66 151 2.0 13.0 0.00 0.00 0.00 33 1017.5
20260508173504 66 181 1.0 8.0 0.00 0.00 0.00 32 1017.4
20260508173001 66 162 3.0 8.0 0.00 0.00 0.00 29 1017.8
20260508172601 66 68 0.0 8.0 0.00 0.00 0.00 29 1017.8
20260508172059 67 240 2.0 8.0 0.00 0.00 0.00 28 1017.9
20260508171559 67 208 2.0 8.0 0.00 0.00 0.00 28 1017.9
20260508171057 68 254 5.0 8.0 0.00 0.00 0.00 23 1017.9
20260508170555 68 288 1.0 9.0 0.00 0.00 0.00 26 1018.1
20260508170054 68 237 4.0 9.0 0.00 0.00 0.00 26 1018.3
20260508165652 68 241 0.0 7.0 0.00 0.00 0.00 28 1018.4
20260508165054 67 239 1.0 7.0 0.00 0.00 0.00 30 1018.4
20260508164555 67 257 1.0 6.0 0.00 0.00 0.00 26 1018.6
20260508164051 67 350 1.0 6.0 0.00 0.00 0.00 18 1018.7
20260508163551 67 240 3.0 8.0 0.00 0.00 0.00 17 1018.7
20260508163050 68 232 3.0 8.0 0.00 0.00 0.00 20 1018.7
20260508162550 67 151 0.0 7.0 0.00 0.00 0.00 27 1018.8
20260508162149 66 236 1.0 7.0 0.00 0.00 0.00 30 1018.6
20260508161555 66 255 1.0 6.0 0.00 0.00 0.00 30 1018.8
20260508161147 64 338 3.0 8.0 0.00 0.00 0.00 27 1018.8
20260508160545 66 214 2.0 8.0 0.00 0.00 0.00 24 1018.9
20260508160044 66 212 0.0 6.0 0.00 0.00 0.00 30 1019.0
20260508155644 66 255 2.0 8.0 0.00 0.00 0.00 28 1019.2
20260508155046 65 268 2.0 8.0 0.00 0.00 0.00 28 1019.2
20260508154558 65 226 3.0 10.0 0.00 0.00 0.00 30 1019.3
20260508154041 64 283 5.0 10.0 0.00 0.00 0.00 30 1019.4
20260508153540 66 239 5.0 9.0 0.00 0.00 0.00 30 1019.4
20260508153041 65 41 1.0 4.0 0.00 0.00 0.00 28 1019.3
20260508152538 65 139 1.0 4.0 0.00 0.00 0.00 32 1019.4
20260508152038 65 143 0.0 6.0 0.00 0.00 0.00 31 1019.4
20260508151536 65 23 2.0 6.0 0.00 0.00 0.00 33 1019.4
20260508151036 65 131 1.0 4.0 0.00 0.00 0.00 36 1019.4
20260508150534 65 227 0.0 4.0 0.00 0.00 0.00 37 1019.4
20260508150051 64 252 0.0 4.0 0.00 0.00 0.00 37 1019.4
20260508145636 63 163 2.0 6.0 0.00 0.00 0.00 41 1019.6
20260508145035 63 124 0.0 3.0 0.00 0.00 0.00 39 1019.5
20260508144534 63 124 1.0 7.0 0.00 0.00 0.00 41 1019.7
20260508144035 62 108 1.0 7.0 0.00 0.00 0.00 39 1019.7
20260508143532 62 289 2.0 8.0 0.00 0.00 0.00 39 1019.8
20260508143041 62 264 1.0 6.0 0.00 0.00 0.00 40 1019.8
20260508142530 62 141 0.0 6.0 0.00 0.00 0.00 39 1019.9
20260508142029 62 65 2.0 6.0 0.00 0.00 0.00 39 1019.9
20260508141531 61 316 1.0 4.0 0.00 0.00 0.00 37 1019.8
20260508141031 61 237 0.0 3.0 0.00 0.00 0.00 37 1019.9
20260508140529 61 283 1.0 3.0 0.00 0.00 0.00 36 1019.9
20260508140029 62 166 0.0 3.0 0.00 0.01 0.00 37 1020.0
20260508135627 59 330 0.0 4.0 0.00 0.01 0.00 40 1019.9
20260508135025 58 332 0.0 8.0 0.00 0.01 0.00 39 1019.9
20260508134525 57 344 1.0 8.0 0.00 0.01 0.00 42 1020.0
20260508134025 57 71 2.0 6.0 0.00 0.01 0.00 43 1020.1
20260508133525 58 33 1.0 6.0 0.00 0.01 0.00 43 1020.0
20260508133024 57 48 1.0 6.0 0.00 0.01 0.00 46 1020.0
20260508132522 57 347 1.0 7.0 0.00 0.01 0.00 41 1020.1
20260508132021 56 65 1.0 10.0 0.00 0.01 0.00 43 1020.1
20260508131522 56 49 5.0 10.0 0.00 0.01 0.00 44 1020.0
20260508131020 56 39 3.0 5.0 0.00 0.01 0.00 43 1020.0
20260508130520 56 51 1.0 5.0 0.00 0.01 0.00 45 1020.0
20260508130018 56 23 2.0 5.0 0.00 0.01 0.00 44 1019.9
20260508125619 54 77 1.0 6.0 0.00 0.01 0.00 47 1019.8
20260508125019 53 21 2.0 6.0 0.00 0.01 0.00 45 1019.9
20260508124516 53 80 2.0 4.0 0.00 0.01 0.00 47 1019.9
20260508124016 52 67 2.0 5.0 0.00 0.01 0.00 48 1019.9
20260508123515 52 55 2.0 5.0 0.00 0.01 0.00 48 1019.8
20260508123015 52 65 1.0 5.0 0.00 0.01 0.00 50 1019.9
20260508122513 51 46 2.0 5.0 0.00 0.01 0.00 50 1019.9
20260508122014 51 60 1.0 4.0 0.00 0.01 0.00 51 1019.9
20260508121513 51 333 1.0 3.0 0.00 0.01 0.00 51 1019.8
20260508121012 51 69 0.0 2.0 0.00 0.01 0.00 52 1019.7
20260508120511 50 356 0.0 2.0 0.00 0.01 0.00 53 1019.7
20260508120010 50 83 0.0 0.0 0.00 0.09 0.00 53 1019.6
20260508115609 48 120 0.0 1.0 0.00 0.09 0.00 53 1019.5
20260508115009 48 123 0.0 1.0 0.00 0.09 0.00 52 1019.5
20260508114509 46 130 0.0 3.0 0.00 0.09 0.00 51 1019.5
20260508114007 46 133 0.0 4.0 0.00 0.09 0.00 49 1019.3
20260508113507 45 52 1.0 4.0 0.00 0.09 0.00 45 1019.3
20260508113005 44 81 0.0 1.0 0.00 0.09 0.00 45 1019.2
20260508112505 43 54 0.0 0.0 0.00 0.09 0.00 46 1019.1
20260508112002 42 54 0.0 0.0 0.00 0.09 0.00 45 1019.1
20260508111503 42 52 0.0 1.0 0.00 0.09 0.00 45 1019.0
20260508111100 42 52 0.0 1.0 0.00 0.09 0.00 45 1018.8
20260508110557 42 43 0.0 1.0 0.00 0.09 0.00 45 1018.7
20260508110107 42 46 0.0 1.0 0.00 0.12 0.00 45 1018.6
20260508105556 42 82 0.0 1.0 0.00 0.12 0.00 45 1018.7
20260508105055 42 82 0.0 1.0 0.00 0.12 0.00 45 1018.6
20260508104605 42 82 0.0 1.0 0.00 0.12 0.00 44 1018.5
20260508104054 42 79 0.0 0.0 0.00 0.12 0.00 44 1018.4
20260508103552 42 80 0.0 1.0 0.00 0.12 0.00 44 1018.3
20260508103054 43 80 0.0 1.0 0.00 0.12 0.00 44 1018.2
20260508102550 43 80 0.0 0.0 0.00 0.12 0.00 43 1018.0
20260508102050 43 86 0.0 0.0 0.00 0.12 0.00 43 1018.0
20260508101549 43 86 0.0 0.0 0.00 0.12 0.00 43 1017.7
20260508101047 43 86 0.0 0.0 0.00 0.12 0.00 42 1017.6
20260508100546 43 86 0.0 1.0 0.00 0.12 0.00 42 1017.6
20260508100044 43 86 0.0 1.0 0.00 0.12 0.00 42 1017.4
20260508095544 44 83 0.0 1.0 0.00 0.12 0.00 42 1017.6
20260508095046 44 83 0.0 1.0 0.00 0.12 0.00 42 1017.6
20260508094547 44 148 0.0 0.0 0.00 0.12 0.00 43 1017.4
20260508094042 44 148 0.0 0.0 0.00 0.12 0.00 43 1017.4
20260508093546 44 148 0.0 0.0 0.00 0.12 0.00 44 1017.4
20260508093040 44 159 0.0 0.0 0.00 0.12 0.00 46 1017.4
20260508092537 44 159 0.0 0.0 0.00 0.12 0.00 48 1017.3
20260508092038 45 159 0.0 0.0 0.00 0.12 0.00 48 1017.4
20260508091535 45 159 0.0 0.0 0.00 0.12 0.00 50 1017.3
20260508091034 45 159 0.0 0.0 0.00 0.12 0.00 50 1017.2
20260508090633 45 159 0.0 0.0 0.00 0.12 0.00 52 1017.2
20260508090036 45 159 0.0 1.0 0.00 0.12 0.00 53 1017.1
20260508085532 46 49 0.0 0.0 0.00 0.12 0.00 57 1017.2
20260508085029 46 49 0.0 0.0 0.00 0.12 0.00 57 1017.1
20260508084527 46 49 0.0 0.0 0.00 0.12 0.00 58 1017.1
20260508084027 46 49 0.0 0.0 0.00 0.12 0.00 61 1017.0
20260508083527 46 49 0.0 0.0 0.00 0.12 0.00 61 1016.8
20260508083024 47 49 0.0 0.0 0.00 0.12 0.00 62 1016.9
20260508082522 47 49 0.0 0.0 0.00 0.12 0.00 63 1016.9
20260508082021 47 49 0.0 0.0 0.00 0.12 0.00 64 1017.0
20260508081525 47 49 0.0 0.0 0.00 0.12 0.00 65 1016.9
20260508081018 48 49 0.0 0.0 0.00 0.12 0.00 65 1016.7
20260508080517 48 49 0.0 0.0 0.00 0.12 0.00 66 1016.7
20260508080029 48 49 0.0 0.0 0.00 0.12 0.00 66 1016.8
20260508075515 49 56 1.0 3.0 0.00 0.12 0.00 66 1016.6
20260508075015 49 56 0.0 3.0 0.00 0.12 0.00 66 1016.5
20260508074514 49 71 0.0 2.0 0.00 0.12 0.00 65 1016.7
20260508074012 49 169 0.0 2.0 0.00 0.12 0.00 65 1016.5
20260508073511 50 276 0.0 1.0 0.00 0.12 0.00 65 1016.5
20260508073008 50 276 0.0 1.0 0.00 0.12 0.00 63 1016.4
20260508072506 50 275 0.0 2.0 0.00 0.12 0.00 63 1016.4
20260508072006 51 67 0.0 3.0 0.00 0.12 0.00 61 1016.3
20260508071505 51 262 0.0 2.0 0.00 0.12 0.00 61 1016.2
20260508071005 52 141 0.0 6.0 0.00 0.12 0.00 60 1016.3
20260508070504 52 314 1.0 6.0 0.00 0.12 0.00 59 1016.2
20260508070005 53 270 0.0 6.0 0.00 0.13 0.00 58 1016.0
20260508065501 53 64 0.0 6.0 0.00 0.13 0.00 59 1016.2
20260508065001 53 64 0.0 6.0 0.00 0.13 0.00 59 1016.1
20260508064505 53 65 0.0 6.0 0.00 0.13 0.00 58 1016.0
20260508064059 53 37 0.0 2.0 0.00 0.13 0.00 57 1016.0
20260508063600 53 56 0.0 2.0 0.00 0.13 0.00 57 1016.0
20260508063059 53 292 0.0 2.0 0.00 0.13 0.00 57 1015.9
20260508062557 54 72 0.0 8.0 0.00 0.13 0.00 57 1015.8
20260508062101 53 64 1.0 8.0 0.00 0.13 0.00 56 1015.7
20260508061556 53 47 0.0 5.0 0.00 0.13 0.00 57 1015.7
20260508061056 53 17 0.0 6.0 0.00 0.13 0.00 57 1015.7
20260508060554 52 39 1.0 6.0 0.00 0.13 0.00 58 1015.6
20260508060057 51 39 0.0 4.0 0.00 0.13 0.00 61 1015.7
20260508055556 51 323 0.0 2.0 0.00 0.13 0.00 62 1015.7
20260508054556 51 150 0.0 2.0 0.00 0.13 0.00 63 1015.8
20260508054050 51 146 0.0 1.0 0.00 0.13 0.00 63 1015.8
20260508053553 52 143 0.0 2.0 0.00 0.13 0.00 62 1015.8
20260508053054 52 94 0.0 2.0 0.00 0.13 0.00 61 1015.7
20260508052546 53 313 0.0 2.0 0.00 0.13 0.00 60 1015.8
20260508052044 53 96 0.0 2.0 0.00 0.13 0.00 58 1015.7
20260508051546 54 158 0.0 6.0 0.00 0.13 0.00 57 1015.6
20260508051042 53 47 1.0 8.0 0.00 0.13 0.00 58 1015.7
20260508050543 54 67 1.0 10.0 0.00 0.13 0.00 58 1015.6
20260508050051 53 56 1.0 10.0 0.00 0.16 0.00 58 1015.6
20260508045539 53 77 1.0 6.0 0.00 0.16 0.00 58 1015.4
20260508044541 53 79 0.0 6.0 0.00 0.16 0.00 59 1015.2
20260508044038 53 69 4.0 7.0 0.00 0.16 0.00 58 1015.2
20260508043536 54 49 1.0 7.0 0.00 0.16 0.00 59 1015.2
20260508043035 54 70 2.0 6.0 0.00 0.16 0.00 58 1015.3
20260508042535 54 51 3.0 7.0 0.00 0.16 0.00 58 1015.3
20260508042033 54 37 2.0 6.0 0.00 0.16 0.00 58 1015.1
20260508041532 54 56 2.0 6.0 0.00 0.16 0.00 58 1015.2
20260508041032 55 42 2.0 8.0 0.00 0.16 0.00 55 1015.2
20260508040533 56 63 3.0 8.0 0.00 0.16 0.00 52 1015.3
20260508040042 56 89 2.0 13.0 0.00 0.17 0.00 51 1015.4
20260508035526 56 41 6.0 13.0 0.00 0.17 0.00 51 1015.3
20260508034537 56 4 4.0 12.0 0.00 0.17 0.00 51 1015.1
20260508034026 56 44 2.0 11.0 0.00 0.17 0.00 51 1015.1
20260508033524 56 282 4.0 14.0 0.00 0.17 0.00 51 1015.1
20260508033024 56 44 3.0 14.0 0.00 0.17 0.00 51 1015.1
20260508032524 56 304 2.0 12.0 0.00 0.17 0.00 51 1015.1
20260508032025 56 18 3.0 12.0 0.00 0.17 0.00 51 1015.1
20260508031522 56 45 5.0 12.0 0.00 0.17 0.00 51 1015.1
20260508031023 56 15 2.0 15.0 0.00 0.17 0.00 51 1015.0
20260508030520 57 40 3.0 15.0 0.00 0.17 0.00 51 1015.0
20260508030018 57 347 2.0 18.0 0.00 0.18 0.00 51 1014.9
20260508025518 57 258 6.0 15.0 0.00 0.18 0.00 51 1014.6
20260508024523 56 56 3.0 16.0 0.00 0.18 0.00 51 1014.5
20260508024017 56 330 7.0 16.0 0.00 0.18 0.00 52 1014.4
20260508023515 56 332 2.0 15.0 0.00 0.18 0.00 52 1014.3
20260508023015 56 334 5.0 12.0 0.00 0.18 0.00 52 1014.4
20260508022513 56 301 6.0 15.0 0.00 0.18 0.00 52 1014.2
20260508022014 56 319 5.0 16.0 0.00 0.18 0.00 52 1014.3
20260508021512 56 29 5.0 19.0 0.00 0.18 0.00 53 1014.3
20260508021011 56 33 6.0 19.0 0.00 0.18 0.00 53 1014.2
20260508020512 56 343 4.0 15.0 0.00 0.18 0.00 53 1014.3
20260508020010 56 67 5.0 11.0 0.00 0.20 0.00 54 1014.3
20260508015511 56 29 3.0 11.0 0.00 0.20 0.00 54 1014.2
20260508014509 56 27 3.0 11.0 0.00 0.20 0.00 54 1014.2
20260508014007 56 46 6.0 11.0 0.00 0.20 0.00 54 1014.2
20260508013505 55 30 4.0 11.0 0.00 0.20 0.00 54 1014.0
20260508013005 56 340 4.0 11.0 0.00 0.20 0.00 54 1013.8
20260508012506 56 9 4.0 11.0 0.00 0.20 0.00 54 1013.8
20260508012003 56 29 4.0 9.0 0.00 0.20 0.00 54 1013.8
20260508011503 56 345 4.0 8.0 0.00 0.20 0.00 54 1013.7
20260508011001 56 335 4.0 7.0 0.00 0.20 0.00 54 1013.7
20260508010502 56 341 3.0 7.0 0.00 0.20 0.00 54 1013.6
20260508010058 56 328 1.0 12.0 0.00 0.28 0.00 53 1013.7
20260508005600 56 326 3.0 12.0 0.00 0.28 0.00 52 1013.7
20260508004600 56 42 2.0 8.0 0.00 0.28 0.00 53 1013.7
20260508004056 56 297 1.0 9.0 0.00 0.28 0.00 52 1013.6
20260508003558 57 308 2.0 9.0 0.00 0.28 0.00 52 1013.6
20260508003054 57 347 4.0 8.0 0.00 0.28 0.00 52 1013.6
20260508002552 57 332 2.0 9.0 0.00 0.28 0.00 52 1013.6
20260508002052 57 334 3.0 10.0 0.00 0.28 0.00 51 1013.4
20260508001554 57 25 1.0 10.0 0.00 0.28 0.00 51 1013.4
20260508001050 57 335 5.0 11.0 0.00 0.28 0.00 51 1013.5
20260508000549 57 319 3.0 14.0 0.00 0.28 0.00 51 1013.3
20260508000055 57 345 6.0 14.0 0.00 0.33 0.00 51 1013.4
20260507235550 57 47 6.0 12.0 0.00 0.33 0.00 51 1013.3
20260507234554 57 30 5.0 14.0 0.00 0.33 0.00 51 1013.5
20260507234045 57 64 7.0 12.0 0.00 0.33 0.00 52 1013.5
20260507233545 58 56 6.0 14.0 0.00 0.33 0.00 52 1013.6
20260507233108 58 27 7.0 17.0 0.00 0.33 0.00 51 1013.5
20260507232545 58 44 11.0 21.0 0.00 0.33 0.00 51 1013.6
20260507232047 58 11 11.0 21.0 0.00 0.33 0.00 51 1013.4
20260507231540 58 46 11.0 20.0 0.00 0.33 0.00 51 1013.2
20260507231038 58 39 7.0 15.0 0.00 0.33 0.00 51 1013.3
20260507230537 58 42 7.0 18.0 0.00 0.33 0.00 51 1013.2
20260507230036 58 345 9.0 18.0 0.00 0.33 0.00 51 1013.4
20260507225534 59 53 7.0 14.0 0.00 0.33 0.00 51 1013.1
20260507224532 60 10 2.0 22.0 0.00 0.33 0.00 52 1013.2
20260507224132 59 52 11.0 22.0 0.00 0.33 0.00 52 1013.2
20260507223533 60 49 11.0 19.0 0.00 0.33 0.00 52 1013.1
20260507223130 60 354 7.0 21.0 0.00 0.33 0.00 51 1012.9
20260507222529 60 20 10.0 21.0 0.00 0.33 0.00 52 1012.9
20260507222025 60 41 11.0 20.0 0.00 0.33 0.00 52 1012.7
20260507221531 60 316 11.0 19.0 0.00 0.33 0.00 50 1012.8
20260507221021 61 6 11.0 19.0 0.00 0.33 0.00 50 1012.7
20260507220519 61 40 10.0 17.0 0.00 0.33 0.00 50 1012.5
20260507220021 61 18 5.0 14.0 0.00 0.33 0.00 51 1012.4
20260507215520 61 356 8.0 20.0 0.00 0.33 0.00 51 1012.3
20260507214517 62 349 3.0 22.0 0.00 0.33 0.00 52 1012.2
20260507214015 62 11 10.0 20.0 0.00 0.33 0.00 52 1012.2
20260507213513 62 322 9.0 21.0 0.00 0.33 0.00 50 1012.0
20260507213019 63 338 10.0 21.0 0.00 0.33 0.00 51 1011.7
20260507212509 64 342 10.0 17.0 0.00 0.33 0.00 49 1011.5
20260507212007 65 23 8.0 16.0 0.00 0.33 0.00 49 1011.3
20260507211507 66 41 6.0 15.0 0.00 0.33 0.00 47 1011.1
20260507211007 65 285 6.0 16.0 0.00 0.33 0.00 51 1011.0
20260507210504 66 52 9.0 17.0 0.00 0.33 0.00 49 1011.0
20260507210002 66 359 7.0 19.0 0.00 0.33 0.00 49 1010.9
20260507205501 66 304 5.0 19.0 0.00 0.33 0.00 48 1011.0
20260507204600 67 357 2.0 18.0 0.00 0.33 0.00 48 1010.8
20260507204102 66 37 8.0 17.0 0.00 0.33 0.00 47 1010.8
20260507203556 67 85 6.0 17.0 0.00 0.33 0.00 48 1010.6
20260507203056 67 343 7.0 17.0 0.00 0.33 0.00 48 1010.6
20260507202558 68 355 5.0 15.0 0.00 0.33 0.00 47 1010.4
20260507202054 68 44 2.0 14.0 0.00 0.33 0.00 48 1010.4
20260507201555 67 294 5.0 19.0 0.00 0.33 0.00 48 1010.5
20260507201053 68 243 8.0 20.0 0.00 0.33 0.00 47 1010.8
20260507200555 68 316 10.0 20.0 0.00 0.33 0.00 48 1010.6
20260507200057 67 321 7.0 17.0 0.00 0.33 0.00 50 1010.4
20260507195552 67 345 10.0 20.0 0.00 0.33 0.00 49 1010.4
20260507194553 68 356 8.0 18.0 0.00 0.33 0.00 48 1010.6
20260507194044 69 23 7.0 25.0 0.00 0.33 0.00 49 1010.5
20260507193547 69 336 12.0 25.0 0.00 0.33 0.00 48 1010.4
20260507193042 69 15 6.0 16.0 0.00 0.33 0.00 48 1010.1
20260507192541 69 4 7.0 16.0 0.00 0.33 0.00 48 1010.0
20260507192039 70 333 8.0 15.0 0.00 0.33 0.00 48 1009.9
20260507191542 70 344 6.0 19.0 0.00 0.33 0.00 47 1010.0
20260507191035 71 348 7.0 19.0 0.00 0.33 0.00 47 1010.0
20260507190535 71 321 4.0 15.0 0.00 0.33 0.00 47 1009.9
20260507190045 71 279 6.0 19.0 0.00 0.33 0.00 47 1010.0
20260507185533 70 295 3.0 19.0 0.00 0.33 0.00 47 1010.1